CAPE
109 422 1160 1548 1693 1613 1187 1376 1545 1470 1223 1220 1117 1055 958 748 604 318 393 388 419 412 327 160 140 231 275 255 238 198 198 176 138 131 135 125 131 81 18 1 8 23 66
0 203 1313 1293 1574 1686 1291 1314 1573 1606 1404 1429 1388 1242 1075 705 633 403 491 422 475 373 204 156 143 139 108 80 12 35 44 30 4 0 0 0 3 6 6 5 5 8 14
0 241 1390 1324 1401 1615 1426 1297 1485 1566 1514 1497 1404 1285 906 644 617 502 448 384 371 234 118 122 59 52 16 8 6 4 0 0 0 0 0 0 0 0 5 8 12 9 6
0 12 1122 1449 1376 1554 1480 1309 1394 1514 1502 1476 1455 1176 764 761 548 624 491 290 70 71 78 25 18 24 9 4 2 0 0 0 0 0 0 0 0 0 5 5 2 7 6
0 0 27 1090 1523 1447 1503 1276 1177 1318 1328 1323 1273 1047 785 596 416 540 464 181 0 0 15 8 0 7 4 6 0 0 0 0 0 0 0 0 0 7 10 8 3 0 3
0 0 0 411 1296 1474 1503 1279 1201 1253 1195 1074 1045 912 738 445 550 575 398 91 0 0 5 5 1 7 3 4 1 0 0 0 0 0 0 0 0 9 7 4 2 3 2
0 0 0 6 868 1344 1402 1300 1145 1235 1276 1121 972 844 606 509 602 502 264 0 0 0 3 8 9 11 1 0 1 0 0 0 0 0 0 0 4 12 6 7 6 8 4
0 0 0 1 4 828 1229 1183 1083 1082 1163 1075 908 713 594 672 658 477 32 0 0 0 4 8 8 11 0 2 0 0 0 0 0 0 0 5 6 7 5 2 3 4 7
0 0 0 0 1 0 740 1024 1028 926 978 998 832 614 652 842 606 239 0 0 0 0 3 7 8 7 6 2 0 0 0 0 0 0 0 1 3 6 3 6 1 2 3
0 0 0 0 0 0 1 161 749 904 785 901 758 645 735 718 428 123 0 0 0 0 6 5 8 10 5 0 0 0 0 0 0 0 0 3 4 5 2 3 11 4 3
0 0 0 0 0 0 0 2 48 712 708 795 719 581 687 544 320 66 0 0 0 0 6 9 13 13 0 0 0 0 0 0 0 0 1 5 3 1 4 6 4 9 5
0 0 0 0 0 0 0 0 0 414 609 611 637 500 622 428 200 37 0 0 0 0 7 7 13 6 0 0 0 0 0 0 0 1 4 11 15 7 0 2 1 3 6
0 0 0 0 0 0 0 0 0 3 450 410 539 526 470 306 84 2 0 0 0 3 7 4 9 0 0 0 0 0 0 0 0 0 5 8 8 4 6 6 0 3 5
0 0 0 0 0 0 0 0 0 2 6 394 362 438 268 75 39 1 0 0 0 1 0 0 0 0 0 0 0 0 0 0 0 0 3 4 3 8 3 4 5 6 6
0 0 0 0 0 0 0 0 0 0 1 122 372 290 121 75 22 1 1 0 0 0 0 0 0 0 0 0 0 0 0 0 0 0 0 2 5 3 10 7 5 4 3
0 0 0 0 0 0 0 0 0 1 1 1 101 205 189 43 12 1 1 0 0 0 0 0 0 0 0 0 0 0 0 0 0 0 0 2 2 4 4 7 6 4 2
0 0 0 0 0 0 0 0 0 0 0 0 0 171 158 63 3 1 0 0 0 0 0 0 0 0 0 0 0 0 0 0 0 0 0 0 0 1 2 7 5 4 4
0 0 0 0 0 0 0 0 0 0 0 0 2 3 92 25 1 0 0 0 0 0 0 0 0 0 0 0 0 0 0 0 0 0 0 0 0 0 4 4 4 3 3
0 0 0 0 0 4 0 5 9 0 0 0 0 0 59 2 0 0 0 0 0 0 0 0 0 0 0 0 0 0 0 0 0 0 0 0 0 0 0 0 2 0 1
0 0 0 0 0 0 0 16 8 1 0 0 1 3 17 1 1 0 0 1 0 0 0 0 0 0 0 0 0 0 0 0 0 0 0 0 0 0 0 0 0 0 0
0 0 0 0 0 0 4 2 4 0 0 0 0 0 2 2 1 1 1 0 0 0 0 0 0 0 0 0 0 0 0 0 0 0 0 0 0 0 0 0 0 0 0
0 0 0 0 0 0 2 4 3 2 5 1 0 0 0 3 1 1 1 1 0 0 0 0 0 1 0 0 0 0 0 0 0 0 0 0 0 0 0 0 0 0 0
0 0 0 0 0 0 0 3 3 1 1 1 0 0 16 4 6 1 1 1 0 0 0 0 0 0 0 0 0 0 0 0 0 0 0 0 0 0 0 0 0 0 0
0 0 0 0 0 0 0 3 5 6 4 2 0 0 0 7 23 0 0 0 0 0 0 0 0 0 0 0 0 0 0 0 0 0 0 0 0 0 0 0 0 0 0
0 0 0 0 0 0 0 1 5 6 5 3 2 0 0 1 0 0 1 1 0 0 0 0 0 0 0 0 0 0 0 0 0 0 0 0 0 0 0 0 0 0 0
0 0 0 0 0 0 0 0 3 5 5 5 2 0 0 4 1 0 0 0 1 0 0 0 0 0 0 0 0 0 0 0 0 0 0 0 0 0 0 0 0 0 0
CIN
-153 -124 -136 -86 -73 -76 -111 -56 -30 -17 -32 -42 -34 -19 -10 -12 -32 -46 -7 -2 -1 -2 -18 -20 -96 -82 -124 -126 -137 -193 -215 -282 -119 -7 -107 -4 -314 -5 -16 -12 -2 -4 -25
0 -155 -58 -115 -64 -50 -80 -74 -16 -11 -13 -19 -14 -9 -3 -15 -6 -23 -6 -1 0 -6 -31 -53 -65 -125 -217 -141 -9 -86 -81 -99 -8 0 0 0 -7 -16 -11 -5 -5 -1 0
0 -161 -6 -48 -76 -48 -44 -53 -28 -6 -9 -10 -10 -4 -11 -23 -6 -9 -11 -5 -4 -28 -49 -72 -148 -196 0 0 0 0 0 0 0 0 0 0 0 0 -3 -4 -2 -2 -2
0 -88 0 -11 -38 -35 -32 -21 -9 -7 -10 -8 -2 -6 -24 -6 -6 0 0 -15 -70 -64 -77 -223 -1 -1 0 0 0 0 0 0 0 0 0 0 0 0 0 0 -1 -1 -1
0 0 -31 -1 -12 -17 -13 -14 -11 -10 -14 -14 -8 -11 -17 -15 -18 0 0 -36 0 0 -3 0 0 -2 -2 0 0 0 0 0 0 0 0 0 0 -2 -1 -1 -1 0 0
0 0 0 -16 -2 -7 0 -3 -1 -3 -11 -19 -12 -14 -13 -23 -2 0 0 -57 0 0 0 -1 -1 0 0 0 0 0 0 0 0 0 0 0 0 -1 0 0 0 0 -1
0 0 0 0 -1 -2 -1 0 0 0 0 -4 -10 -9 -15 -10 0 0 -5 -2 0 0 0 0 0 0 0 0 0 0 0 0 0 0 0 0 -2 -2 0 -1 0 0 -6
0 0 0 0 0 -11 -2 -2 -1 0 0 0 -7 -11 -10 0 0 0 -57 0 0 0 0 0 0 0 0 0 0 0 0 0 0 0 0 -2 -1 -1 -2 -1 -2 -1 0
0 0 0 0 0 0 0 -3 -2 -1 -1 0 -1 -12 -3 -1 0 -10 0 0 0 0 0 0 0 0 0 0 0 0 0 0 0 0 -2 -2 -5 0 -1 0 0 -2 -2
0 0 0 0 0 0 0 -90 -5 -3 -2 -1 0 0 -1 0 0 -33 0 0 0 0 0 -1 0 -1 0 0 0 0 0 0 0 0 -1 -2 -4 -3 -2 0 -1 0 -1
0 0 0 0 0 0 0 0 -24 -7 -6 -1 -1 -2 -2 0 0 -32 0 0 0 0 -1 0 0 -2 0 0 0 0 0 0 0 0 -1 -1 -2 0 0 -1 -1 -1 0
0 0 0 0 0 0 0 0 0 -18 -8 -4 -2 -5 0 0 -8 -67 0 0 0 0 -1 -2 -1 -6 0 0 0 0 0 0 0 -2 -1 -2 -5 -2 -1 -2 -1 0 0
0 0 0 0 0 0 0 0 0 0 -4 -5 -1 0 0 -1 -17 -16 0 0 0 -2 -2 -3 -2 0 0 0 0 0 0 0 0 -1 -2 -1 0 -1 0 0 -1 -1 0
0 0 0 0 0 0 0 0 0 0 -9 -2 -5 -1 -1 -17 -61 0 0 0 0 -5 0 0 0 0 0 0 0 0 0 0 0 -3 -2 -1 -2 0 -2 0 0 0 0
0 0 0 0 0 0 0 0 0 0 0 0 -1 -2 -7 -18 -57 0 0 0 0 0 0 0 0 0 0 0 0 0 0 0 0 0 0 -1 -2 -1 -1 0 0 -1 0
0 0 0 0 0 0 0 0 0 0 0 0 -12 -7 -3 -47 -94 0 0 0 0 0 0 0 0 0 0 0 0 0 0 0 0 0 0 -2 0 0 0 -1 -1 0 0
0 0 0 0 0 0 0 0 0 0 0 0 0 -11 -4 -45 -29 0 0 0 0 0 0 0 0 0 0 0 0 0 0 0 0 0 0 0 -1 -1 0 0 0 0 0
0 0 0 0 0 0 0 0 0 0 0 0 0 0 -17 -55 -57 0 0 0 0 0 0 0 0 0 0 0 0 0 0 0 0 0 0 0 0 0 -3 -1 0 0 0
0 0 0 0 0 0 0 -7 -1 0 0 0 0 0 -13 -29 0 0 0 0 0 0 0 0 0 0 0 0 0 0 0 0 0 0 0 0 0 0 0 -3 -1 0 0
0 0 0 0 0 0 0 0 -1 -2 0 0 0 0 -17 -8 0 0 0 0 0 0 0 0 0 0 0 0 0 0 0 0 0 0 0 0 0 0 0 0 0 0 0
0 0 0 0 0 0 0 0 -1 0 0 0 0 0 0 -9 0 0 0 0 0 0 0 0 0 0 0 0 0 0 0 0 0 0 0 0 0 0 0 0 0 0 0
0 0 0 0 0 0 0 0 0 0 0 -1 0 0 0 0 0 0 0 0 0 0 0 0 0 0 0 0 0 0 0 0 0 0 0 0 0 0 0 0 0 0 0
0 0 0 0 0 0 0 0 0 0 0 0 0 0 0 -34 -24 0 0 0 0 0 0 0 0 0 0 0 0 0 0 0 0 0 0 0 0 0 0 0 0 0 0
0 0 0 0 0 0 0 0 0 0 0 0 0 0 0 -1 -33 0 0 0 0 0 0 0 0 0 0 0 0 0 0 0 0 0 0 0 0 0 0 0 0 0 0
0 0 0 0 0 0 0 0 0 0 0 0 0 0 0 0 0 0 0 0 0 0 0 0 0 0 0 0 0 0 0 0 0 0 0 0 0 0 0 0 0 0 0
0 0 0 0 0 0 0 0 0 0 0 0 0 0 0 0 -53 0 0 0 0 0 0 0 0 0 0 0 0 0 0 0 0 0 0 0 0 0 0 0 0 0 0
Wind_Speed
26 24 13 14 10 8 8 7 6 6 7 7 7 9 11 11 11 13 14 18 21 22 23 26 28 31 33 34 36 35 34 36 37 35 35 35 34 29 25 24 23 24 23
30 29 23 13 15 12 11 9 7 7 8 8 7 7 8 9 10 9 12 15 17 18 20 23 25 28 30 31 34 35 34 34 34 33 32 33 33 33 31 27 26 24 22
30 28 24 22 15 14 13 13 10 9 9 9 8 7 7 8 7 7 10 11 13 15 17 19 22 23 28 30 32 33 32 30 31 30 30 29 31 32 31 30 30 28 24
28 25 26 25 21 17 15 15 13 11 10 11 9 8 7 6 7 6 7 7 10 11 12 15 16 20 25 28 30 29 31 29 29 30 26 27 29 30 30 29 29 29 28
28 26 27 29 24 22 18 16 16 15 13 12 11 9 8 7 6 5 6 6 6 7 7 10 13 15 22 25 28 26 28 28 26 28 30 25 26 28 29 29 29 29 30
28 28 27 34 26 24 22 19 19 18 16 14 13 12 9 9 7 6 6 5 6 5 6 6 10 14 13 16 22 26 26 27 29 25 29 29 26 28 29 29 29 30 30
29 28 26 27 34 28 25 22 21 21 19 17 15 14 12 10 9 8 6 5 6 5 5 7 9 10 11 13 16 18 23 25 27 29 26 27 29 27 28 28 29 29 30
30 28 26 25 24 36 29 26 24 23 22 20 18 16 15 12 11 10 8 6 4 5 4 4 5 8 10 11 12 14 16 18 24 27 29 29 30 30 29 29 29 30 28
28 28 26 25 26 25 38 29 27 25 25 23 21 19 17 15 13 11 10 7 5 3 3 2 3 7 8 9 11 11 12 12 7 4 24 28 29 30 30 30 30 31 31
30 28 27 27 25 25 28 32 32 28 27 25 24 22 20 18 15 13 11 9 6 5 4 3 3 4 6 8 9 11 12 10 9 10 12 24 26 25 27 28 29 30 29
33 30 28 28 26 30 23 27 32 35 28 28 26 25 22 20 18 16 13 11 8 6 6 4 4 4 4 5 6 8 8 7 10 9 10 14 17 19 21 22 22 24 24
39 34 32 29 30 30 29 29 29 38 31 29 28 26 25 23 21 19 16 13 10 8 7 6 5 5 3 2 2 3 4 6 9 12 12 13 14 15 16 16 17 19 21
40 38 35 33 32 31 33 29 29 27 37 32 29 28 27 25 23 22 19 16 13 11 10 8 7 7 5 4 2 1 2 4 6 7 10 12 14 14 15 17 17 17 18
42 40 37 33 36 36 32 31 32 32 32 36 32 30 30 28 26 25 23 20 16 16 13 10 9 8 7 5 4 2 2 2 3 5 7 9 11 13 13 15 16 16 16
44 39 36 38 38 37 36 34 33 36 30 37 36 32 31 31 28 27 25 22 20 18 16 13 11 10 8 7 5 4 2 0 2 4 5 8 10 11 12 14 14 15 15
40 39 42 39 36 38 37 38 37 39 39 30 40 37 34 32 30 28 26 25 22 20 19 16 13 12 11 9 7 5 4 3 1 1 3 5 7 9 11 12 13 14 14
40 41 39 36 37 39 42 40 39 40 38 35 34 40 39 35 34 31 28 27 25 22 19 17 16 13 12 11 9 8 6 5 3 2 2 3 5 7 8 10 11 12 13
40 39 38 37 39 41 41 43 40 37 40 42 38 38 41 38 35 33 30 29 26 23 22 20 18 16 14 13 12 11 9 7 6 4 2 3 4 5 6 8 9 10 11
40 40 40 40 41 40 41 45 43 41 39 41 44 37 43 40 38 35 32 30 27 25 24 22 21 19 16 14 12 12 11 10 8 7 5 5 5 5 6 8 7 8 9
39 39 42 42 41 42 41 41 44 43 41 41 44 45 40 44 39 37 34 32 30 28 26 25 23 20 18 15 13 12 13 13 12 11 9 7 7 7 7 7 7 8 8
41 41 41 43 42 43 43 44 44 45 43 43 38 45 39 47 43 40 37 35 33 31 29 27 24 22 20 17 14 14 15 15 15 15 14 11 9 9 9 8 7 8 9
42 43 45 45 44 43 45 46 46 46 46 45 45 45 42 43 45 44 42 39 36 32 30 29 27 26 24 21 21 18 21 22 20 18 18 16 13 12 11 10 9 8 8
42 43 45 46 47 46 46 46 48 49 47 46 49 45 41 38 40 45 45 43 39 35 33 31 30 28 26 26 20 21 23 26 21 21 20 19 18 16 14 12 11 9 9
43 43 44 45 47 46 46 47 49 51 55 51 48 45 42 41 37 41 47 48 41 38 35 34 31 31 28 29 26 25 21 18 22 24 24 21 20 18 17 15 13 11 10
42 43 44 45 46 46 46 46 49 51 52 52 48 50 46 37 32 29 38 48 45 41 38 36 34 33 30 30 29 28 25 23 20 21 23 22 22 21 19 17 15 13 11
42 42 43 45 46 45 46 46 49 51 53 52 52 47 46 46 27 23 27 33 37 40 40 39 37 36 33 32 31 29 29 27 24 22 22 22 23 23 21 19 17 15 13
Wind_Direction
290 279 257 251 241 227 228 223 203 191 174 150 139 122 111 103 93 86 78 82 88 85 82 85 87 91 95 92 97 114 116 109 102 110 105 100 83 59 49 45 41 41 42
288 271 258 245 241 235 228 221 215 195 186 171 155 141 124 113 100 90 82 80 81 81 84 85 86 89 89 86 93 108 114 115 110 111 111 103 98 81 68 54 50 44 37
296 275 258 251 236 232 224 227 216 205 196 192 173 160 144 125 114 99 90 85 81 82 83 82 87 82 94 94 98 101 118 122 118 116 115 113 104 95 92 95 81 60 44
299 290 263 249 244 235 226 229 224 211 200 201 196 175 169 147 130 113 100 91 86 82 78 81 78 81 93 100 101 92 110 126 122 114 124 119 111 104 100 102 100 92 68
300 292 278 254 244 238 234 229 227 221 212 206 206 195 183 175 156 133 117 104 95 85 77 80 80 78 92 94 102 90 93 122 130 121 110 127 122 112 109 105 105 102 94
299 298 282 255 247 239 238 232 228 226 221 214 214 209 197 195 184 154 136 122 110 95 85 80 81 86 75 74 85 94 90 91 121 133 114 116 125 118 115 113 109 105 103
298 298 291 279 246 241 238 235 230 227 226 221 215 214 207 198 194 178 164 148 121 103 97 95 88 82 75 72 75 74 85 86 88 113 130 124 115 124 119 117 115 114 108
294 295 291 286 275 245 239 236 231 228 227 225 220 214 208 203 195 192 178 170 146 114 111 110 96 90 80 74 71 69 68 67 79 91 99 114 112 113 114 115 114 110 115
292 290 289 284 275 270 240 237 233 230 229 227 223 215 210 206 197 189 189 187 177 159 134 159 125 100 88 80 75 68 64 57 35 91 79 95 97 102 109 104 104 99 100
286 285 288 282 278 277 267 247 237 232 229 227 225 219 216 208 201 193 190 197 195 200 177 148 153 121 99 89 80 78 71 57 47 45 45 86 86 78 81 83 90 88 82
279 280 284 279 277 274 277 265 249 235 230 228 225 222 216 217 211 204 204 195 202 212 200 193 166 141 122 98 87 82 69 51 54 39 42 57 60 61 65 63 61 62 64
271 274 277 278 273 275 265 269 262 236 233 228 226 222 221 219 218 217 207 201 208 212 208 200 187 163 190 206 126 84 62 59 56 61 56 56 56 55 52 46 46 49 54
267 269 273 274 274 275 269 273 262 267 233 230 225 222 223 222 218 216 214 214 218 214 224 216 208 212 197 190 178 123 72 58 53 45 56 61 63 58 52 56 54 50 50
266 268 268 271 272 267 267 266 258 261 254 231 226 220 222 222 219 218 218 219 218 223 224 222 216 207 199 196 174 156 116 70 6 38 51 57 55 57 53 53 56 54 46
265 267 269 268 266 264 263 261 264 258 260 248 228 221 221 222 220 218 220 220 221 223 224 224 219 213 209 208 204 186 185 168 34 40 44 55 56 55 56 56 51 51 49
266 269 267 266 266 266 263 260 264 252 252 261 238 226 220 221 219 219 219 222 221 223 225 223 220 216 220 219 215 215 221 238 275 3 29 42 47 52 55 51 50 48 50
269 265 270 266 260 263 259 257 260 260 261 256 266 228 223 221 220 219 220 222 221 222 220 221 221 220 220 227 225 231 232 241 253 281 335 10 33 42 46 46 48 47 45
268 269 270 268 264 265 264 260 260 258 255 256 258 264 223 221 218 220 221 221 220 217 218 218 218 220 221 223 227 238 240 246 254 264 290 321 344 360 19 37 39 40 40
274 273 270 269 265 266 261 257 253 255 259 257 255 266 228 221 219 220 222 220 216 217 217 215 218 218 218 222 226 236 246 250 256 263 271 293 311 332 350 354 13 29 32
276 273 269 268 269 267 266 262 261 255 253 258 254 258 250 222 218 220 219 217 216 219 219 217 213 220 218 218 225 236 249 256 260 263 267 280 291 304 321 336 349 351 8
278 273 271 270 270 268 264 262 262 253 256 258 261 258 269 224 215 218 219 215 215 217 218 215 214 209 220 215 221 241 255 259 260 264 268 271 277 288 300 312 325 334 339
280 278 274 271 269 268 263 262 260 257 256 257 257 254 261 245 215 217 218 216 214 216 215 215 212 218 229 217 232 239 249 258 261 262 266 268 271 280 287 296 304 313 325
283 277 275 272 268 266 266 265 261 259 256 257 257 260 270 255 229 223 217 216 215 214 214 211 212 217 220 225 220 248 251 257 255 261 261 264 268 272 279 286 290 296 305
285 280 275 271 269 265 266 263 259 256 252 254 257 260 265 250 246 235 225 212 213 218 217 217 218 222 222 222 228 250 259 261 257 261 261 262 265 267 271 276 280 285 291
290 282 274 272 268 265 264 262 258 255 254 253 254 255 253 253 250 238 234 228 220 220 221 219 221 225 226 229 230 242 252 260 263 266 264 258 264 266 267 269 273 277 283
294 286 279 272 267 266 264 263 259 257 254 252 251 254 252 247 251 235 232 230 228 224 221 224 224 230 227 234 236 240 244 252 257 264 270 264 262 267 264 267 269 272 277